Radiation Dose at Monitoring Post of Fukushima Daini Nuclear Power Station
Date,Time,MP-1(microSv/h),MP-2(microSv/h),MP-3(microSv/h),MP-4(microSv/h),MP-5(microSv/h),MP-6(microSv/h),MP-7(microSv/h),Wind Direction,Wind Velocity(m/s),Rain
2019/05/25,00:00,0.194,0.177,0.296,0.278,0.272,0.148,0.090,west,7.3,No
2019/05/25,00:10,0.194,0.177,0.297,0.280,0.272,0.148,0.091,west,7.3,No
2019/05/25,00:20,0.194,0.176,0.297,0.277,0.272,0.148,0.091,west-southwest,7.3,No
2019/05/25,00:30,0.193,0.178,0.297,0.280,0.272,0.147,0.091,west-southwest,7.9,No
2019/05/25,00:40,0.194,0.177,0.297,0.278,0.273,0.147,0.091,west,7.0,No
2019/05/25,00:50,0.193,0.178,0.297,0.280,0.273,0.148,0.090,west,7.4,No
2019/05/25,01:00,0.195,0.177,0.297,0.278,0.272,0.150,0.092,west,6.0,No
2019/05/25,01:10,0.194,0.177,0.296,0.279,0.273,0.147,0.091,west-southwest,5.2,No
2019/05/25,01:20,0.193,0.178,0.296,0.279,0.275,0.149,0.091,west-southwest,4.5,No
2019/05/25,01:30,0.196,0.178,0.297,0.278,0.272,0.148,0.091,west-southwest,5.0,No
2019/05/25,01:40,0.193,0.176,0.295,0.278,0.275,0.148,0.091,west-southwest,4.3,No
2019/05/25,01:50,0.195,0.177,0.296,0.279,0.270,0.148,0.092,southwest,4.5,No
2019/05/25,02:00,0.193,0.176,0.297,0.279,0.273,0.149,0.090,southwest,3.5,No
2019/05/25,02:10,0.193,0.178,0.296,0.278,0.271,0.148,0.091,west-southwest,3.0,No
2019/05/25,02:20,0.194,0.177,0.297,0.278,0.274,0.148,0.091,west-southwest,2.3,No
2019/05/25,02:30,0.193,0.176,0.297,0.278,0.271,0.148,0.091,west,2.2,No
2019/05/25,02:40,0.195,0.177,0.296,0.280,0.274,0.147,0.092,west-northwest,1.6,No
2019/05/25,02:50,0.193,0.176,0.297,0.279,0.271,0.148,0.090,west,2.8,No
2019/05/25,03:00,0.194,0.176,0.296,0.278,0.274,0.148,0.091,west,3.0,No
2019/05/25,03:10,0.194,0.177,0.298,0.281,0.272,0.149,0.092,west,3.5,No
2019/05/25,03:20,0.194,0.177,0.296,0.278,0.273,0.147,0.091,west,2.4,No
2019/05/25,03:30,0.195,0.177,0.298,0.278,0.272,0.148,0.091,west,2.0,No
2019/05/25,03:40,0.193,0.177,0.297,0.279,0.273,0.148,0.091,west-northwest,1.0,No
2019/05/25,03:50,0.193,0.176,0.295,0.278,0.272,0.148,0.091,-,CALM,No
2019/05/25,04:00,0.193,0.178,0.299,0.280,0.271,0.147,0.091,-,CALM,No
2019/05/25,04:10,0.194,0.178,0.295,0.278,0.273,0.147,0.091,east,1.1,No
2019/05/25,04:20,0.195,0.177,0.298,0.279,0.271,0.148,0.090,northeast,0.9,No
2019/05/25,04:30,0.193,0.177,0.297,0.278,0.274,0.149,0.091,northeast,1.1,No
2019/05/25,04:40,0.195,0.177,0.296,0.279,0.272,0.148,0.092,-,CALM,No
2019/05/25,04:50,0.193,0.178,0.298,0.280,0.273,0.148,0.091,-,CALM,No
2019/05/25,05:00,0.196,0.178,0.297,0.277,0.273,0.148,0.091,east,0.6,No
2019/05/25,05:10,0.193,0.177,0.298,0.280,0.273,0.147,0.091,-,CALM,No
2019/05/25,05:20,0.194,0.176,0.297,0.279,0.273,0.148,0.091,-,CALM,No
2019/05/25,05:30,0.194,0.177,0.297,0.279,0.273,0.148,0.091,north,2.0,No
2019/05/25,05:40,0.193,0.177,0.298,0.280,0.273,0.149,0.091,north,1.7,No
2019/05/25,05:50,0.194,0.177,0.296,0.278,0.272,0.147,0.091,north,2.2,No
2019/05/25,06:00,0.194,0.177,0.298,0.279,0.271,0.148,0.091,north,2.7,No
2019/05/25,06:10,0.195,0.176,0.298,0.280,0.273,0.148,0.092,north,3.1,No
2019/05/25,06:20,0.194,0.177,0.297,0.279,0.271,0.147,0.091,north,2.9,No
2019/05/25,06:30,0.194,0.177,0.297,0.281,0.275,0.148,0.091,north,3.0,No
2019/05/25,06:40,0.194,0.177,0.296,0.279,0.273,0.147,0.091,north,1.9,No
2019/05/25,06:50,0.195,0.177,0.299,0.281,0.274,0.148,0.091,north-northeast,1.8,No
2019/05/25,07:00,0.193,0.176,0.296,0.277,0.272,0.148,0.091,north,2.0,No
2019/05/25,07:10,0.193,0.177,0.293,0.279,0.272,0.147,0.090,north-northeast,2.4,No
2019/05/25,07:20,0.193,0.177,0.296,0.279,0.275,0.147,0.091,north-northeast,1.4,No
2019/05/25,07:30,0.195,0.176,0.297,0.276,0.271,0.148,0.091,north-northeast,1.4,No
2019/05/25,07:40,0.193,0.175,0.295,0.279,0.272,0.148,0.091,north,0.8,No
2019/05/25,07:50,0.191,0.176,0.293,0.277,0.273,0.148,0.091,northeast,1.3,No
2019/05/25,08:00,0.194,0.178,0.292,0.277,0.270,0.147,0.090,northeast,1.1,No
2019/05/25,08:10,0.195,0.177,0.293,0.275,0.268,0.148,0.090,north-northeast,0.7,No
2019/05/25,08:20,0.192,0.176,0.296,0.276,0.272,0.146,0.091,north-northeast,0.7,No
2019/05/25,08:30,0.194,0.175,0.296,0.275,0.271,0.147,0.089,northeast,1.5,No
2019/05/25,08:40,0.193,0.174,0.295,0.275,0.271,0.148,0.090,east-northeast,1.7,No
2019/05/25,08:50,0.193,0.175,0.297,0.276,0.269,0.147,0.090,east-northeast,2.5,No
2019/05/25,09:00,0.192,0.178,0.298,0.276,0.268,0.146,0.091,east-northeast,3.1,No
2019/05/25,09:10,0.194,0.178,0.296,0.276,0.272,0.146,0.092,east-northeast,3.4,No
2019/05/25,09:20,0.194,0.177,0.297,0.276,0.276,0.147,0.091,east,2.4,No
2019/05/25,09:30,0.191,0.176,0.299,0.277,0.273,0.148,0.090,east-northeast,1.2,No
2019/05/25,09:40,0.192,0.176,0.295,0.276,0.271,0.147,0.090,east-northeast,1.3,No
2019/05/25,09:50,0.193,0.177,0.296,0.276,0.269,0.147,0.090,east,0.9,No
2019/05/25,10:00,0.195,0.177,0.299,0.276,0.270,0.149,0.090,east-southeast,1.2,No
2019/05/25,10:10,0.194,0.177,0.297,0.277,0.269,0.149,0.090,east-southeast,1.4,No
2019/05/25,10:20,0.193,0.176,0.295,0.277,0.274,0.148,0.090,east,1.8,No
2019/05/25,10:30,0.191,0.175,0.293,0.278,0.275,0.147,0.090,east,1.9,No
2019/05/25,10:40,0.191,0.175,0.294,0.278,0.273,0.147,0.090,east-southeast,1.6,No
2019/05/25,10:50,0.195,0.177,0.293,0.278,0.270,0.148,0.091,east,1.5,No
2019/05/25,11:00,0.195,0.177,0.295,0.278,0.270,0.147,0.090,east-southeast,2.6,No
2019/05/25,11:10,0.194,0.178,0.294,0.277,0.271,0.148,0.091,east-southeast,3.6,No
2019/05/25,11:20,0.191,0.177,0.295,0.278,0.269,0.147,0.092,southeast,2.7,No
2019/05/25,11:30,0.192,0.176,0.295,0.277,0.269,0.147,0.092,southeast,2.4,No
2019/05/25,11:40,0.192,0.176,0.295,0.276,0.270,0.147,0.092,south-southeast,3.2,No
2019/05/25,11:50,0.192,0.176,0.295,0.278,0.270,0.147,0.091,south-southeast,3.4,No
2019/05/25,12:00,0.192,0.175,0.296,0.277,0.271,0.148,0.091,south-southeast,3.5,No
2019/05/25,12:10,0.191,0.177,0.295,0.278,0.270,0.149,0.090,south-southeast,3.9,No
2019/05/25,12:20,0.192,0.178,0.296,0.278,0.272,0.148,0.090,southeast,5.2,No
2019/05/25,12:30,0.191,0.178,0.296,0.277,0.270,0.148,0.091,south-southeast,5.6,No
2019/05/25,12:40,0.192,0.177,0.296,0.279,0.270,0.149,0.091,south-southeast,5.9,No
2019/05/25,12:50,0.193,0.176,0.296,0.279,0.271,0.148,0.091,south-southeast,6.7,No
2019/05/25,13:00,0.192,0.177,0.296,0.278,0.272,0.148,0.091,south-southeast,5.9,No
2019/05/25,13:10,0.193,0.176,0.296,0.278,0.271,0.149,0.091,south-southeast,6.2,No
2019/05/25,13:20,0.192,0.176,0.296,0.279,0.270,0.149,0.092,south-southeast,5.5,No
2019/05/25,13:30,0.192,0.175,0.296,0.278,0.271,0.149,0.092,south-southeast,5.9,No
2019/05/25,13:40,0.193,0.176,0.296,0.279,0.273,0.148,0.091,south-southeast,6.3,No
2019/05/25,13:50,0.193,0.177,0.297,0.279,0.271,0.148,0.090,south-southeast,7.0,No
2019/05/25,14:00,0.193,0.176,0.296,0.279,0.272,0.148,0.091,south-southeast,6.2,No
2019/05/25,14:10,0.194,0.177,0.299,0.277,0.273,0.149,0.091,south-southeast,6.4,No
2019/05/25,14:20,0.193,0.177,0.298,0.280,0.273,0.148,0.090,south-southeast,8.5,No
2019/05/25,14:30,0.194,0.177,0.298,0.279,0.272,0.148,0.091,south-southeast,10.1,No
2019/05/25,14:40,0.193,0.176,0.298,0.279,0.272,0.149,0.091,south-southeast,8.9,No
2019/05/25,14:50,0.194,0.177,0.298,0.278,0.273,0.149,0.093,south-southeast,10.0,No
2019/05/25,15:00,0.193,0.178,0.299,0.279,0.273,0.148,0.092,south-southeast,10.0,No
2019/05/25,15:10,0.193,0.179,0.297,0.284,0.272,0.149,0.092,south-southeast,10.7,No
2019/05/25,15:20,0.193,0.178,0.298,0.282,0.272,0.150,0.091,south-southeast,11.8,No
2019/05/25,15:30,0.192,0.178,0.297,0.280,0.272,0.149,0.091,south-southeast,11.1,No
2019/05/25,15:40,0.194,0.177,0.297,0.282,0.272,0.149,0.092,south,11.3,No
2019/05/25,15:50,0.197,0.177,0.296,0.283,0.273,0.148,0.092,south-southeast,9.5,No
2019/05/25,16:00,0.197,0.178,0.301,0.281,0.272,0.148,0.092,south-southeast,10.6,No
2019/05/25,16:10,0.194,0.178,0.300,0.279,0.271,0.148,0.092,south-southeast,9.5,No
2019/05/25,16:20,0.194,0.178,0.299,0.283,0.272,0.149,0.092,south-southeast,8.8,No
2019/05/25,16:30,0.194,0.179,0.297,0.281,0.271,0.149,0.092,south-southeast,9.6,No
2019/05/25,16:40,0.193,0.178,0.301,0.279,0.271,0.149,0.092,south-southeast,10.3,No
2019/05/25,16:50,0.194,0.177,0.300,0.283,0.272,0.150,0.091,south,10.3,No
2019/05/25,17:00,0.197,0.179,0.296,0.281,0.271,0.149,0.091,south,9.5,No
2019/05/25,17:10,0.197,0.179,0.298,0.280,0.273,0.149,0.092,south,9.2,No
2019/05/25,17:20,0.194,0.177,0.302,0.281,0.271,0.149,0.091,south,7.0,No
2019/05/25,17:30,0.195,0.178,0.299,0.283,0.273,0.148,0.092,south,6.4,No
2019/05/25,17:40,0.196,0.179,0.297,0.280,0.277,0.148,0.093,south,7.0,No
2019/05/25,17:50,0.194,0.178,0.300,0.280,0.276,0.150,0.091,south,7.0,No
2019/05/25,18:00,0.194,0.179,0.300,0.283,0.273,0.148,0.091,south,7.5,No
2019/05/25,18:10,0.196,0.178,0.296,0.281,0.272,0.150,0.093,south,7.8,No
2019/05/25,18:20,0.196,0.179,0.301,0.280,0.275,0.149,0.092,south,8.5,No
2019/05/25,18:30,0.194,0.179,0.301,0.281,0.276,0.147,0.092,south,7.8,No
2019/05/25,18:40,0.195,0.177,0.298,0.281,0.273,0.149,0.092,south,6.7,No
2019/05/25,18:50,0.196,0.178,0.301,0.282,0.276,0.149,0.091,south,6.7,No
2019/05/25,19:00,0.194,0.178,0.300,0.284,0.275,0.148,0.092,south,7.3,No
2019/05/25,19:10,0.196,0.179,0.298,0.280,0.273,0.150,0.091,south,6.2,No
2019/05/25,19:20,0.194,0.178,0.302,0.282,0.276,0.148,0.092,south,7.1,No
2019/05/25,19:30,0.194,0.179,0.299,0.281,0.274,0.149,0.092,south,5.9,No
2019/05/25,19:40,0.196,0.178,0.300,0.280,0.273,0.149,0.091,south,5.4,No
2019/05/25,19:50,0.195,0.177,0.300,0.283,0.276,0.150,0.092,south,5.3,No
2019/05/25,20:00,0.197,0.178,0.299,0.280,0.274,0.149,0.092,south,5.6,No
2019/05/25,20:10,0.194,0.179,0.301,0.282,0.276,0.150,0.093,south,5.0,No
2019/05/25,20:20,0.196,0.177,0.298,0.283,0.274,0.150,0.092,south,5.1,No
2019/05/25,20:30,0.195,0.178,0.302,0.282,0.274,0.150,0.092,south,4.6,No
2019/05/25,20:40,0.195,0.177,0.300,0.284,0.274,0.149,0.091,south,3.9,No
2019/05/25,20:50,0.195,0.179,0.300,0.281,0.273,0.149,0.092,south,3.3,No
2019/05/25,21:00,0.195,0.179,0.301,0.284,0.276,0.149,0.091,south-southwest,3.2,No
2019/05/25,21:10,0.195,0.180,0.301,0.280,0.273,0.150,0.092,south,3.2,No
2019/05/25,21:20,0.195,0.180,0.300,0.284,0.274,0.149,0.092,south,3.7,No
2019/05/25,21:30,0.197,0.178,0.301,0.281,0.273,0.149,0.092,south-southwest,4.6,No
2019/05/25,21:40,0.194,0.178,0.301,0.283,0.274,0.149,0.092,south,4.6,No
2019/05/25,21:50,0.197,0.179,0.301,0.282,0.275,0.150,0.092,south-southwest,5.3,No
2019/05/25,22:00,0.196,0.179,0.300,0.284,0.273,0.149,0.092,south-southwest,4.6,No
2019/05/25,22:10,0.197,0.178,0.300,0.281,0.274,0.150,0.093,south-southwest,4.5,No
2019/05/25,22:20,0.195,0.179,0.301,0.282,0.273,0.149,0.092,south-southwest,4.0,No
2019/05/25,22:30,0.197,0.179,0.301,0.282,0.275,0.149,0.093,south-southwest,3.4,No
2019/05/25,22:40,0.196,0.180,0.302,0.284,0.274,0.150,0.093,south,2.8,No
2019/05/25,22:50,0.197,0.179,0.302,0.281,0.277,0.150,0.093,south-southwest,1.2,No
2019/05/25,23:00,0.197,0.180,0.301,0.284,0.274,0.151,0.093,south,0.8,No
2019/05/25,23:10,0.197,0.178,0.302,0.282,0.277,0.149,0.092,south-southwest,1.2,No
2019/05/25,23:20,0.196,0.179,0.301,0.284,0.274,0.150,0.093,south-southwest,1.4,No
2019/05/25,23:30,0.197,0.179,0.301,0.282,0.275,0.151,0.093,west-southwest,0.8,No
2019/05/25,23:40,0.196,0.179,0.300,0.284,0.274,0.149,0.093,-,CALM,No
2019/05/25,23:50,0.196,0.180,0.302,0.282,0.276,0.150,0.092,northeast,1.1,No
